TimeEDT,TemperatureF,Dew PointF,Humidity,Sea Level PressureIn,VisibilityMPH,Wind Direction,Wind SpeedMPH,Gust SpeedMPH,PrecipitationIn,Events,Conditions,WindDirDegrees,DateUTC
12:15 AM,68.0,68.0,100,30.36,10.0,Calm,Calm,-,N/A,,Unknown,0,2013-07-16 04:15:00
12:35 AM,69.8,68.0,94,30.36,10.0,Calm,Calm,-,N/A,,Unknown,0,2013-07-16 04:35:00
12:55 AM,68.0,68.0,100,30.37,10.0,Calm,Calm,-,N/A,,Unknown,0,2013-07-16 04:55:00
1:15 AM,68.0,68.0,100,30.37,10.0,Calm,Calm,-,N/A,,Unknown,0,2013-07-16 05:15:00
1:35 AM,68.0,68.0,100,30.37,10.0,Calm,Calm,-,N/A,,Unknown,0,2013-07-16 05:35:00
1:55 AM,68.0,68.0,100,30.37,10.0,Calm,Calm,-,N/A,,Unknown,0,2013-07-16 05:55:00
2:15 AM,66.2,66.2,100,30.36,10.0,Calm,Calm,-,N/A,,Unknown,0,2013-07-16 06:15:00
2:35 AM,66.2,66.2,100,30.36,9.0,Calm,Calm,-,N/A,,Unknown,0,2013-07-16 06:35:00
2:55 AM,66.2,66.2,100,30.36,10.0,Calm,Calm,-,N/A,,Unknown,0,2013-07-16 06:55:00
3:15 AM,66.2,66.2,100,30.36,10.0,Calm,Calm,-,N/A,,Unknown,0,2013-07-16 07:15:00
3:35 AM,66.2,66.2,100,30.36,10.0,Calm,Calm,-,N/A,,Unknown,0,2013-07-16 07:35:00
3:55 AM,66.2,66.2,100,30.36,8.0,Calm,Calm,-,N/A,,Unknown,0,2013-07-16 07:55:00
4:15 AM,66.2,66.2,100,30.36,10.0,Calm,Calm,-,N/A,,Unknown,0,2013-07-16 08:15:00
4:35 AM,64.4,64.4,100,30.36,7.0,Calm,Calm,-,N/A,,Unknown,0,2013-07-16 08:35:00
4:55 AM,64.4,64.4,100,30.36,9.0,Calm,Calm,-,N/A,,Unknown,0,2013-07-16 08:55:00
5:15 AM,64.4,64.4,100,30.36,8.0,Calm,Calm,-,N/A,,Unknown,0,2013-07-16 09:15:00
5:35 AM,64.4,64.4,100,30.37,10.0,Calm,Calm,-,N/A,,Unknown,0,2013-07-16 09:35:00
5:55 AM,64.4,64.4,100,30.37,10.0,Calm,Calm,-,N/A,,Unknown,0,2013-07-16 09:55:00
6:15 AM,62.6,62.6,100,30.38,7.0,Calm,Calm,-,N/A,,Unknown,0,2013-07-16 10:15:00
6:35 AM,64.4,64.4,100,30.38,7.0,Calm,Calm,-,N/A,,Unknown,0,2013-07-16 10:35:00
6:55 AM,64.4,64.4,100,30.38,9.0,Calm,Calm,-,N/A,,Unknown,0,2013-07-16 10:55:00
7:15 AM,66.2,64.4,94,30.39,10.0,Calm,Calm,-,N/A,,Clear,0,2013-07-16 11:15:00
7:35 AM,68.0,66.2,94,30.39,10.0,Calm,Calm,-,N/A,,Clear,0,2013-07-16 11:35:00
7:55 AM,68.0,66.2,94,30.40,10.0,Calm,Calm,-,N/A,,Clear,0,2013-07-16 11:55:00
8:15 AM,69.8,66.2,88,30.40,10.0,Calm,Calm,-,N/A,,Clear,0,2013-07-16 12:15:00
8:35 AM,71.6,66.2,83,30.41,10.0,Calm,Calm,-,N/A,,Clear,0,2013-07-16 12:35:00
8:55 AM,73.4,68.0,83,30.41,10.0,Calm,Calm,-,N/A,,Clear,0,2013-07-16 12:55:00
9:15 AM,75.2,68.0,78,30.42,10.0,Calm,Calm,-,N/A,,Clear,0,2013-07-16 13:15:00
9:35 AM,77.0,68.0,74,30.42,10.0,Calm,Calm,-,N/A,,Clear,0,2013-07-16 13:35:00
9:55 AM,77.0,68.0,74,30.41,10.0,Calm,Calm,-,N/A,,Clear,0,2013-07-16 13:55:00
10:15 AM,78.8,68.0,69,30.41,10.0,Calm,Calm,-,N/A,,Clear,0,2013-07-16 14:15:00
10:35 AM,80.6,68.0,65,30.41,10.0,Calm,Calm,-,N/A,,Clear,0,2013-07-16 14:35:00
10:55 AM,82.4,68.0,62,30.41,10.0,Calm,Calm,-,N/A,,Clear,0,2013-07-16 14:55:00
11:15 AM,82.4,68.0,62,30.41,10.0,Calm,Calm,-,N/A,,Clear,0,2013-07-16 15:15:00
11:55 AM,84.2,68.0,58,30.40,10.0,Calm,Calm,-,N/A,,Clear,0,2013-07-16 15:55:00
12:15 PM,84.2,68.0,58,30.39,10.0,Calm,Calm,-,N/A,,Partly Cloudy,0,2013-07-16 16:15:00
12:35 PM,86.0,68.0,55,30.38,10.0,Calm,Calm,-,N/A,,Partly Cloudy,0,2013-07-16 16:35:00
12:55 PM,86.0,68.0,55,30.38,10.0,NNW,5.8,-,N/A,,Scattered Clouds,340,2013-07-16 16:55:00
1:15 PM,86.0,68.0,55,30.37,10.0,Calm,Calm,-,N/A,,Scattered Clouds,0,2013-07-16 17:15:00
1:35 PM,86.0,66.2,51,30.37,10.0,Calm,Calm,-,N/A,,Scattered Clouds,0,2013-07-16 17:35:00
1:55 PM,87.8,66.2,49,30.36,10.0,Calm,Calm,-,N/A,,Partly Cloudy,0,2013-07-16 17:55:00
2:15 PM,87.8,68.0,52,30.35,10.0,Calm,Calm,-,N/A,,Partly Cloudy,0,2013-07-16 18:15:00
2:35 PM,89.6,66.2,46,30.35,10.0,SE,3.5,-,N/A,,Partly Cloudy,130,2013-07-16 18:35:00
2:55 PM,87.8,68.0,52,30.34,10.0,Calm,Calm,-,N/A,,Scattered Clouds,0,2013-07-16 18:55:00
3:15 PM,87.8,66.2,49,30.34,10.0,Calm,Calm,-,N/A,,Partly Cloudy,0,2013-07-16 19:15:00
3:35 PM,89.6,66.2,46,30.34,10.0,East,3.5,-,N/A,,Partly Cloudy,90,2013-07-16 19:35:00
4:55 PM,89.6,66.2,46,30.32,10.0,Calm,Calm,-,N/A,,Clear,0,2013-07-16 20:55:00
5:15 PM,89.6,68.0,49,30.33,10.0,Calm,Calm,-,N/A,,Partly Cloudy,0,2013-07-16 21:15:00
5:35 PM,87.8,68.0,52,30.32,10.0,Calm,Calm,-,N/A,,Partly Cloudy,0,2013-07-16 21:35:00
5:55 PM,87.8,68.0,52,30.32,10.0,Calm,Calm,-,N/A,,Clear,0,2013-07-16 21:55:00
6:15 PM,89.6,68.0,49,30.31,10.0,Calm,Calm,-,N/A,,Clear,0,2013-07-16 22:15:00
6:35 PM,89.6,66.2,46,30.32,10.0,Calm,Calm,-,N/A,,Clear,0,2013-07-16 22:35:00
6:55 PM,86.0,71.6,62,30.32,10.0,Calm,Calm,-,N/A,,Clear,0,2013-07-16 22:55:00
7:15 PM,84.2,71.6,66,30.32,10.0,Calm,Calm,-,N/A,,Clear,0,2013-07-16 23:15:00
7:35 PM,84.2,71.6,66,30.32,10.0,Calm,Calm,-,N/A,,Clear,0,2013-07-16 23:35:00
7:55 PM,86.0,71.6,62,30.33,10.0,Calm,Calm,-,N/A,,Clear,0,2013-07-16 23:55:00
8:15 PM,82.4,71.6,70,30.32,10.0,Calm,Calm,-,N/A,,Clear,0,2013-07-17 00:15:00
8:35 PM,82.4,71.6,70,30.32,10.0,Calm,Calm,-,N/A,,Unknown,0,2013-07-17 00:35:00
8:55 PM,80.6,71.6,74,30.33,10.0,Calm,Calm,-,N/A,,Unknown,0,2013-07-17 00:55:00
9:15 PM,78.8,73.4,83,30.33,10.0,Calm,Calm,-,N/A,,Unknown,0,2013-07-17 01:15:00
9:35 PM,77.0,71.6,83,30.33,10.0,Calm,Calm,-,N/A,,Unknown,0,2013-07-17 01:35:00
9:55 PM,75.2,71.6,89,30.33,10.0,Calm,Calm,-,N/A,,Unknown,0,2013-07-17 01:55:00
10:15 PM,73.4,71.6,94,30.34,10.0,Calm,Calm,-,N/A,,Unknown,0,2013-07-17 02:15:00
10:35 PM,73.4,71.6,94,30.35,10.0,Calm,Calm,-,N/A,,Unknown,0,2013-07-17 02:35:00
10:55 PM,73.4,71.6,94,30.35,10.0,Calm,Calm,-,N/A,,Unknown,0,2013-07-17 02:55:00
11:15 PM,73.4,71.6,94,30.35,10.0,Calm,Calm,-,N/A,,Unknown,0,2013-07-17 03:15:00
11:35 PM,71.6,71.6,100,30.34,10.0,Calm,Calm,-,N/A,,Unknown,0,2013-07-17 03:35:00
11:55 PM,71.6,71.6,100,30.35,10.0,Calm,Calm,-,N/A,,Unknown,0,2013-07-17 03:55:00